Theta_e
345 342 335 336 337 335 334 334 335 336 336 336 337 337 337 337 337 336 337 339 341 343 346 346 345 343 339 338 334 332 330 328 326 326 331 336 342 330 330 331 346 344 337
342 341 334 334 335 337 339 339 338 337 336 338 339 337 334 333 333 335 340 343 345 346 346 347 346 344 341 340 337 334 332 329 328 326 325 325 333 343 333 333 342 336 334
340 339 336 339 342 343 343 338 336 335 336 336 333 332 335 339 340 340 342 344 345 346 346 345 345 345 344 343 340 337 337 337 336 335 329 327 327 336 343 336 336 335 333
343 341 343 345 343 343 337 339 341 336 333 333 335 341 344 344 345 346 346 345 344 346 345 344 342 338 338 339 339 338 338 335 333 331 333 336 342 342 340 340 339 338 337
347 345 346 343 343 338 340 337 334 338 342 344 344 344 343 343 343 343 342 341 340 339 339 339 338 338 337 337 338 338 338 338 338 338 341 342 342 345 343 338 334 333 337
347 345 345 342 341 340 334 337 343 343 343 343 342 343 338 340 339 338 337 337 337 336 336 336 336 336 335 335 335 335 336 336 336 336 337 339 338 345 340 336 337 335 334
347 345 341 340 340 340 344 343 342 341 339 336 335 333 331 331 330 330 328 327 328 330 330 331 331 331 332 333 333 334 334 335 335 335 336 336 342 343 339 339 337 336 332
343 339 342 340 340 340 338 340 338 335 334 332 329 325 323 324 324 322 319 318 317 316 315 316 318 318 316 317 323 327 331 331 328 329 332 335 342 342 340 333 336 338 333
341 343 341 341 342 338 339 336 334 333 329 324 323 325 326 325 325 324 322 320 320 320 321 321 321 321 321 323 323 324 325 328 327 330 331 334 341 342 339 333 338 337 336
343 341 341 340 336 338 336 335 333 330 328 325 325 325 327 325 324 323 323 321 321 321 322 322 321 322 324 322 322 322 323 325 324 321 327 338 341 339 339 339 338 338 336
342 343 339 337 337 338 337 335 334 332 329 327 326 325 325 325 323 323 323 323 322 322 324 322 324 323 321 321 320 320 320 321 321 321 330 334 336 337 338 338 338 337 336
342 343 342 343 341 339 338 338 336 334 330 325 326 325 326 325 322 323 322 323 322 322 321 322 322 321 321 321 322 324 324 323 322 322 325 329 328 328 330 331 335 338 336
343 342 344 344 342 340 340 339 336 332 328 326 323 324 324 324 321 323 322 321 321 321 320 321 320 321 322 324 323 323 325 325 325 329 332 330 329 332 333 327 326 332 335
344 344 346 344 342 341 342 340 335 331 327 326 325 320 323 321 323 323 321 321 320 319 319 321 320 321 322 323 323 323 325 326 325 328 330 332 329 330 332 333 329 329 334
349 348 346 347 344 344 340 336 333 330 326 325 324 319 322 321 323 324 320 319 319 318 319 320 321 320 321 321 321 323 323 324 325 327 328 331 332 332 333 335 335 331 334
349 348 348 347 346 344 341 337 332 330 326 325 323 320 320 322 321 322 320 319 317 318 320 319 320 320 320 320 321 322 322 324 325 325 326 327 328 330 332 331 332 334 331
349 349 348 347 347 345 339 336 332 326 325 324 322 321 321 321 321 319 319 315 317 320 318 319 319 320 320 318 320 322 322 324 323 323 321 320 323 326 328 328 327 327 326
348 349 348 347 345 342 337 332 327 325 324 323 322 321 321 320 321 319 314 316 317 317 318 318 318 319 319 319 319 320 322 323 321 321 319 320 319 319 323 324 324 324 324
348 348 347 345 343 340 335 330 327 324 323 321 321 321 321 319 320 316 314 315 315 316 316 317 319 318 317 317 319 318 318 322 321 321 319 319 318 317 317 320 321 321 321
347 346 344 342 341 336 332 329 325 324 322 321 321 321 319 318 317 314 314 315 313 311 313 314 315 316 314 312 315 316 319 319 320 320 319 319 318 317 316 317 317 319 318
343 342 341 340 337 333 331 327 324 323 321 321 320 319 318 318 316 315 313 314 313 311 312 313 312 313 313 311 309 314 319 321 320 317 316 317 315 315 316 314 315 317 319
341 339 338 336 335 333 330 326 325 323 321 321 320 318 317 317 315 315 314 314 315 313 311 311 312 310 311 309 310 312 311 316 307 318 317 316 315 315 314 314 314 315 315
339 338 337 336 335 332 328 329 326 323 321 320 318 316 316 315 315 314 313 313 312 312 312 311 310 309 309 306 308 308 308 306 307 317 317 316 315 314 314 312 312 311 314
338 337 336 335 333 332 330 324 322 320 320 321 318 315 315 314 315 315 314 314 313 312 312 312 310 308 308 310 308 307 309 308 305 305 308 312 313 311 309 307 306 306 306
338 337 336 335 334 331 326 325 322 319 322 322 317 316 314 314 314 314 315 315 314 313 312 312 310 308 308 309 310 309 307 307 307 306 304 306 307 307 306 305 306 305 306
337 336 336 335 332 330 326 323 321 322 320 318 317 316 314 314 314 314 315 314 314 312 313 312 312 307 308 308 309 309 310 307 307 306 304 305 305 308 306 306 307 306 306
Wind_Speed
18 21 20 19 18 17 16 15 14 13 13 13 13 13 13 12 12 12 11 11 10 10 10 9 9 10 10 10 10 11 10 10 10 8 7 5 2 3 6 7 9 6 4
26 23 21 19 18 17 15 14 13 13 13 13 12 12 12 12 12 13 13 13 13 11 10 10 11 10 10 10 11 11 11 11 11 11 9 7 6 4 1 4 4 4 4
27 24 22 20 19 16 14 13 13 13 13 12 12 12 12 13 13 13 12 12 12 12 12 11 10 10 10 11 11 11 12 12 12 12 12 12 9 8 8 4 2 3 4
27 24 22 19 18 16 15 15 13 12 13 13 13 13 13 13 12 11 10 9 10 12 12 10 11 11 11 11 11 12 13 13 13 13 14 13 11 17 17 9 6 2 2
24 23 21 18 17 16 15 14 14 15 15 14 13 9 9 8 7 7 8 9 9 9 10 10 11 11 11 11 12 13 13 14 15 16 13 13 17 11 17 11 9 4 4
25 23 20 18 17 16 16 17 17 15 14 10 9 10 10 9 8 8 9 9 10 11 11 11 11 11 11 12 12 13 14 15 16 17 16 20 22 18 16 11 8 4 5
25 23 20 19 17 18 18 18 15 14 13 12 10 10 10 10 11 10 12 12 12 11 11 12 13 14 14 14 14 14 15 16 18 19 19 20 19 8 9 2 9 8 7
29 25 21 18 17 16 16 17 15 14 12 11 11 12 14 13 13 15 16 19 16 14 14 14 15 16 15 15 15 15 16 16 18 20 21 17 9 8 10 4 8 14 8
26 27 23 21 19 17 18 16 15 14 13 14 13 11 10 12 12 13 17 19 19 17 16 17 18 18 19 18 19 20 17 15 20 22 22 17 12 10 7 5 8 7 7
27 25 24 21 20 19 18 15 14 15 15 15 13 9 8 10 11 12 14 15 17 16 15 17 19 18 18 20 20 19 17 15 21 23 25 12 8 7 3 5 4 3 4
30 27 26 25 22 18 17 16 14 13 12 11 10 11 11 7 8 11 11 12 16 15 16 17 18 14 16 15 15 16 17 20 21 23 15 7 5 6 6 5 2 3 3
34 32 28 25 24 20 18 15 13 11 10 9 9 8 9 5 6 8 9 13 14 15 13 14 17 17 14 16 18 19 16 16 17 20 16 10 9 9 7 7 7 6 4
37 32 31 29 24 20 15 16 15 12 11 8 6 7 8 6 8 11 12 12 12 13 13 17 16 16 19 18 20 20 20 17 18 23 21 13 11 13 12 10 8 6 8
34 36 30 29 28 20 14 17 18 14 11 8 5 6 5 9 11 10 13 12 14 17 13 16 15 16 18 20 19 19 21 22 20 21 19 19 18 18 15 12 10 8 7
33 33 32 26 28 21 21 19 15 15 10 5 3 7 7 11 12 12 9 11 12 14 15 15 15 17 18 19 18 20 18 21 22 20 22 23 24 21 19 17 14 8 5
34 35 30 26 24 21 18 16 16 12 10 3 4 8 9 12 14 13 10 11 10 13 14 12 12 14 15 13 16 19 21 23 25 27 23 23 25 28 26 26 27 20 22
35 33 30 25 20 15 15 12 12 13 11 8 6 7 10 12 14 13 12 13 14 11 12 13 12 15 12 11 13 13 16 19 22 23 25 25 23 25 28 25 26 28 30
38 33 28 22 18 17 19 16 17 16 12 11 8 7 9 12 13 9 13 15 14 12 10 12 14 12 18 14 11 14 14 15 20 21 22 22 25 26 22 21 23 23 23
38 34 28 23 21 19 19 18 18 15 12 13 9 8 9 11 14 12 12 10 10 11 10 11 10 15 12 13 10 7 8 12 14 19 21 20 23 22 23 22 21 20 20
38 34 29 24 23 22 18 18 17 16 14 12 8 10 12 11 12 13 11 10 11 14 12 15 14 14 11 14 12 9 5 9 11 12 17 17 18 21 19 20 22 20 20
37 35 31 27 24 25 22 21 19 20 17 13 12 9 10 11 8 14 10 13 15 18 15 17 16 18 12 18 15 7 5 8 11 11 10 10 15 18 15 17 17 18 17
37 33 30 27 27 25 23 23 23 23 19 15 13 12 10 9 10 12 12 16 12 16 16 16 21 19 16 21 12 6 4 4 17 7 8 9 10 11 13 13 13 12 10
34 35 32 31 27 24 23 19 22 22 22 16 15 14 12 11 11 10 11 13 11 14 15 17 19 19 20 19 20 10 3 1 6 3 2 6 7 7 8 11 12 12 10
30 32 32 29 28 24 20 23 29 26 22 18 20 17 14 11 10 10 8 11 12 13 13 13 12 15 17 20 12 22 17 16 2 4 14 11 5 8 11 8 10 9 8
31 33 29 27 27 23 24 22 19 18 16 22 22 18 14 12 11 9 9 7 8 8 10 9 14 14 15 18 21 13 18 18 20 9 2 11 13 1 6 5 3 5 6
18 29 30 27 25 21 23 19 20 23 28 27 22 18 15 16 13 9 9 7 7 8 7 7 9 11 11 13 16 19 17 9 11 8 2 4 9 23 3 6 6 5 4
Wind_Direction
137 135 130 120 114 107 102 97 92 86 83 77 74 71 67 64 61 58 54 53 48 38 30 27 20 11 5 3 1 357 354 351 348 343 340 346 33 74 103 119 96 86 84
143 138 130 124 115 110 103 97 91 87 83 76 70 66 62 59 56 54 49 44 37 30 25 18 11 7 0 355 350 348 344 339 334 329 320 303 290 294 248 135 162 84 119
138 132 124 122 118 112 106 101 94 89 84 78 72 67 65 61 57 52 51 45 36 31 26 21 14 8 0 353 346 341 336 329 323 318 313 310 301 276 251 203 191 96 111
127 127 124 123 118 112 108 101 99 92 83 79 72 66 63 58 52 51 49 43 36 34 25 11 8 5 2 355 349 346 344 337 329 318 308 317 321 285 233 212 190 164 120
129 129 126 124 119 116 112 104 96 87 81 79 80 76 73 71 58 45 32 24 18 13 7 7 2 359 356 352 350 344 339 336 332 331 326 324 322 308 201 205 189 192 222
134 131 128 127 122 113 111 107 104 97 95 102 99 84 60 58 47 38 26 14 10 4 1 357 352 347 344 343 340 337 336 334 330 327 329 327 323 250 220 204 214 226 236
133 131 130 129 123 121 118 118 119 111 96 83 72 64 54 51 46 33 32 19 10 3 356 351 348 342 337 333 331 331 329 329 325 323 326 330 334 193 167 206 283 255 227
133 130 127 124 126 129 129 119 109 98 90 81 79 76 68 60 47 45 36 25 18 15 10 10 5 1 350 340 333 333 326 329 327 318 319 319 294 210 188 325 266 277 248
133 133 134 137 138 131 119 114 106 96 88 86 82 71 63 48 36 29 21 17 19 20 20 18 13 11 6 360 356 346 331 327 327 333 328 304 262 228 266 200 213 245 247
139 143 147 148 140 128 122 113 106 99 91 84 69 49 61 49 30 10 7 6 15 18 13 14 8 7 9 3 1 1 359 340 345 347 352 326 259 261 268 241 210 250 263
145 150 150 144 140 130 130 123 112 103 93 92 88 77 70 63 43 28 19 19 12 20 23 16 22 26 2 356 2 5 360 353 351 354 7 349 323 298 287 285 344 340 313
151 158 154 148 141 143 141 132 128 112 97 95 99 83 80 55 32 36 28 30 29 29 15 17 18 5 22 360 354 5 9 359 356 12 12 22 17 3 350 322 325 321 327
155 155 162 162 154 145 159 146 152 139 117 92 116 96 79 54 64 47 48 38 30 18 25 20 12 21 10 32 36 21 23 20 15 32 40 32 25 14 4 350 339 304 288
147 154 160 166 160 150 160 150 146 125 121 107 83 85 98 61 82 59 44 47 36 18 31 20 19 20 26 43 31 25 40 29 18 25 32 29 21 18 10 360 345 326 283
140 153 155 153 151 147 133 135 133 135 138 126 60 73 86 76 74 58 55 42 40 23 20 17 14 24 51 41 37 39 33 28 26 33 44 43 42 38 35 36 29 14 356
147 155 157 154 155 154 153 143 133 137 144 139 55 59 76 90 65 72 52 24 43 27 22 20 30 41 39 50 46 43 38 45 48 50 53 52 48 51 57 54 51 64 60
148 154 156 156 162 163 145 144 136 137 143 117 96 71 75 89 62 62 39 61 28 35 45 33 25 36 34 50 55 56 54 61 56 57 59 63 70 60 58 62 64 68 67
151 154 154 159 156 164 156 147 142 145 139 118 115 92 79 90 65 61 50 43 47 43 45 41 29 24 29 32 58 52 66 74 62 66 62 61 61 63 66 63 63 62 63
158 155 155 162 165 164 156 157 155 139 132 135 132 103 83 77 66 74 71 52 23 37 37 32 18 19 16 1 16 16 58 85 80 79 74 66 65 60 65 65 63 64 66
157 157 159 163 167 164 157 157 154 141 141 140 127 121 93 75 75 103 81 59 45 42 40 34 26 30 33 23 19 13 93 105 100 88 84 84 79 67 57 62 62 67 64
152 156 161 165 170 168 169 159 160 156 152 148 128 114 110 90 92 84 74 64 67 54 46 37 42 37 44 27 18 6 180 113 103 89 80 91 87 81 73 60 58 72 77
157 162 165 169 171 176 175 172 170 166 154 146 135 118 107 101 91 94 87 72 86 64 47 43 42 39 43 39 23 32 17 108 353 105 98 105 92 88 85 86 76 88 90
157 165 166 171 175 178 177 189 173 150 146 136 134 126 115 103 96 94 97 78 65 69 53 44 44 45 36 43 46 54 49 345 338 100 136 130 102 103 105 89 91 92 114
162 170 173 173 180 180 182 164 163 158 159 155 150 136 127 118 120 111 102 82 80 65 63 49 43 46 51 37 36 50 66 56 67 354 26 34 122 120 121 90 95 103 99
163 163 170 175 180 179 180 185 183 177 175 163 152 139 135 137 143 119 109 96 88 82 70 66 49 56 48 46 44 29 43 42 39 68 350 354 38 26 134 67 49 135 114
157 156 169 177 178 181 182 187 180 162 150 149 147 147 151 156 150 144 140 93 107 106 79 82 65 58 51 50 51 44 30 42 31 30 39 338 1 14 38 22 360 110 95